Location: Mahannah Oil Field
(37.4664°N, 96.6003°W)
Time: 15:35:51
(UTC+00:00)

Vanguard 2 Rocket - Pass Details

Date: 18 June 2021
Orbit: 554 x 3325 km, 32.9° (Epoch: 24 July)

Event Time Altitude Azimuth Distance (km) Brightness Sun altitude
Rises 04:04:16 0° 260° (W) 7,227 11.8 -20.4°
Reaches altitude 10° 04:09:27 10° 259° (W) 6,033 11.3 -21.0°
Maximum altitude 04:27:13 73° 180° (S) 2,334 8.7 -22.9°
Enters shadow 04:36:56 13° 98° (E) 3,560 9.6 -23.8°
